Location: Colorado Springs
(38.8340°N, 104.8210°W)
Time: 05:44:37
(UTC-06:00)

Vanguard 1 Rocket - All Passes

Search period start: 23 October 2017 00:00
Search period end: 02 November 2017 00:00
Orbit: 655 x 4222 km, 34.3° (Epoch: 22 October)

Date Brightness Start Highest point End Pass type
(mag) Time Alt. Az. Time Alt. Az. Time Alt. Az.
23 Oct - 03:39:08 10° S 03:46:09 15° SSE 03:51:32 10° ESE visible
23 Oct - 06:03:00 10° SW 06:13:18 34° SSE 06:19:19 10° E visible
23 Oct - 08:31:18 10° WSW 08:38:46 54° S 08:43:29 10° E daylight
23 Oct - 10:58:37 10° W 11:03:13 37° SSW 11:07:19 10° SE daylight
23 Oct - 13:27:08 10° SSW 13:27:32 10° SSW 13:27:57 10° SSW daylight
24 Oct - 04:50:20 10° SSW 05:01:37 28° SSE 05:08:30 10° ESE visible
24 Oct - 07:18:23 10° WSW 07:27:51 50° S 07:33:16 10° E daylight
24 Oct - 09:46:48 10° W 09:52:45 50° S 09:57:04 10° ESE daylight
24 Oct - 12:13:50 10° WSW 12:16:53 18° SSW 12:20:02 10° SSE daylight
25 Oct - 03:38:23 10° SSW 03:49:28 21° SSE 03:56:54 10° ESE visible
25 Oct - 06:05:04 10° SW 06:16:36 43° SSE 06:22:58 10° E visible
25 Oct - 08:34:19 10° WSW 08:42:05 58° S 08:46:53 10° ESE daylight
25 Oct - 11:02:02 10° W 11:06:27 30° SSW 11:10:19 10° SE daylight
26 Oct - 02:28:12 10° S 02:36:52 15° SSE 02:43:34 10° ESE visible
26 Oct - 04:51:41 10° SW 05:04:55 36° SSE 05:12:24 10° E visible
26 Oct - 07:21:07 10° WSW 07:31:10 57° S 07:36:44 10° E daylight
26 Oct - 09:50:01 10° W 09:56:01 45° SSW 10:00:20 10° ESE daylight
26 Oct - 12:18:18 10° SW 12:20:01 12° SSW 12:21:45 10° S daylight
27 Oct - 03:38:45 10° SSW 03:52:44 29° SSE 04:01:17 10° E visible
27 Oct - 06:07:22 10° WSW 06:19:53 51° SSE 06:26:30 10° E visible
27 Oct - 08:37:22 10° W 08:45:23 58° S 08:50:15 10° ESE daylight
27 Oct - 11:05:35 10° W 11:09:36 23° SSW 11:13:07 10° SSE daylight
28 Oct - 02:26:56 10° S 02:40:05 22° SSE 02:49:08 10° ESE visible
28 Oct - 04:53:25 10° SW 05:08:10 44° SSE 05:16:04 10° E visible
28 Oct - 07:23:57 10° WSW 07:34:27 62° S 07:40:09 10° E daylight
28 Oct - 09:53:16 10° W 09:59:14 39° SSW 10:03:30 10° SE daylight
29 Oct - 01:17:35 10° S 01:27:03 15° SE 01:34:39 10° ESE visible
29 Oct - 03:39:44 10° SSW 03:55:56 36° SSE 04:05:13 10° E visible
29 Oct - 06:09:52 10° WSW 06:23:08 59° S 06:29:59 10° E visible
29 Oct - 08:40:27 10° W 08:48:39 55° SSW 08:53:36 10° ESE daylight
29 Oct - 11:09:23 10° WSW 11:12:40 17° SSW 11:15:33 10° S daylight
30 Oct - 02:26:53 10° SSW 02:43:14 29° SSE 02:53:38 10° E visible
30 Oct - 04:55:25 10° SW 05:11:22 53° SSE 05:19:37 10° E visible
30 Oct - 07:26:51 10° W 07:37:43 64° S 07:43:33 10° ESE daylight
30 Oct - 09:56:34 10° W 10:02:22 32° SSW 10:06:32 10° SE daylight
31 Oct - 01:15:38 10° S 01:30:07 21° SE 01:40:40 10° ESE visible
31 Oct - 03:41:08 10° SW 03:59:05 45° SSE 04:08:54 10° E visible
31 Oct - 06:12:30 10° WSW 06:26:23 65° S 06:33:24 10° E visible
31 Oct - 08:43:31 10° W 08:51:52 50° SSW 08:56:52 10° ESE daylight
31 Oct - 11:13:56 10° WSW 11:15:37 11° SW 11:17:11 10° SSW daylight
01 Nov - 00:08:01 10° SSE 00:16:45 13° SE 00:24:16 10° ESE visible
01 Nov - 02:27:32 10° SSW 02:46:17 36° SSE 02:57:38 10° E visible
01 Nov - 04:57:40 10° WSW 05:14:33 60° SSE 05:23:04 10° E visible
01 Nov - 07:29:47 10° W 07:40:58 63° S 07:46:56 10° ESE daylight
01 Nov - 09:59:58 10° W 10:05:24 25° SSW 10:09:21 10° SSE daylight
